Weather History for Estherville, IA

Change the Weather History Date:

Wednesday, November 2, 2011

  Actual Average Record
Temperature  
Mean Temperature 40 °F 40 °F  
Max Temperature 46 °F 50 °F 76 °F (2008)
Min Temperature 33 °F 30 °F 7 °F (1951)
Degree Days  
Heating Degree Days 25 25  
Month to date heating degree days 40 49  
Since 1 July heating degree days 664 798  
Cooling Degree Days 0 0  
Month to date cooling degree days 0 0  
Year to date cooling degree days 767 593  
Moisture  
Dew Point 31 °F    
Average Humidity 64    
Maximum Humidity 79    
Minimum Humidity 49    
Precipitation  
Precipitation 0.03 in 0.06 in 1.15 in (1972)
Month to date precipitation 0.03 0.12  
Year to date precipitation 19.00  
Sea Level Pressure  
Sea Level Pressure 30.19 in    
Wind  
Wind Speed 16 mph (North)    
Max Wind Speed 29 mph    
Max Gust Speed 36 mph    
Visibility 10 miles    
Events Rain    
T = Trace of Precipitation, MM = Missing Value Source: NWS Daily Summary

Daily Weather History Graph

Daily Weather History Graph

Search for Another Location

Airport:

Trip Planner

Search our weather history database for the weather conditions in past years. The results will help you decide how hot, cold, wet, or windy it might be!

Date:

Astronomy

Nov. 02, 2011 Rise Set
Actual Time 7:55 AM CDT 6:09 PM CDT
Civil Twilight 7:25 AM CDT 6:39 PM CDT
Nautical Twilight 6:51 AM CDT 7:12 PM CDT
Astronomical Twilight 6:18 AM CDT 7:46 PM CDT
Moon 2:15 PM CDT (11/2) No Moon Set
Length of Visible Light 11h 13m
Length of Day
10h 14m
Waxing Crescent, 50% of the Moon is Illuminated
Nov 2
Waxing Crescent
Nov 10
Full
Nov 18
Last Quarter
Nov 25
New
Dec 2
First Quarter

Hourly Weather History & Observations

Time (CDT) Temp. Windchill Dew Point Humidity Pressure Visibility Wind Dir Wind Speed Gust Speed Precip Events Conditions
12:52 AM 45.0 °F 37.9 °F 34.0 °F 65% 30.04 in 10.0 mi North 16.1 mph - N/A   Clear
1:52 AM 44.1 °F 37.4 °F 33.1 °F 65% 30.06 in 10.0 mi North 13.8 mph - N/A   Clear
2:52 AM 45.0 °F 37.9 °F 32.0 °F 60% 30.10 in 10.0 mi North 16.1 mph - N/A   Mostly Cloudy
3:52 AM 45.0 °F 36.9 °F 32.0 °F 60% 30.10 in 10.0 mi North 20.7 mph - N/A   Overcast
4:52 AM 45.0 °F 37.4 °F 30.9 °F 58% 30.12 in 10.0 mi North 18.4 mph 25.3 mph N/A   Overcast
5:52 AM 45.0 °F 38.5 °F 30.9 °F 58% 30.14 in 10.0 mi North 13.8 mph - N/A   Mostly Cloudy
6:52 AM 45.0 °F 37.1 °F 32.0 °F 60% 30.16 in 10.0 mi North 19.6 mph 25.3 mph N/A   Overcast
7:52 AM 44.1 °F 34.2 °F 30.9 °F 60% 30.17 in 10.0 mi North 28.8 mph 34.5 mph N/A   Overcast
9:14 AM 39.2 °F 30.8 °F 35.6 °F 87% 30.21 in 5.0 mi North 15.0 mph - 0.02 in Rain Rain
9:44 AM 41.0 °F 32.5 °F 35.6 °F 81% 30.20 in 10.0 mi NNE 17.3 mph 25.3 mph 0.03 in   Overcast
9:52 AM 41.0 °F 33.5 °F 36.0 °F 82% 30.22 in 10.0 mi NNE 13.8 mph 23.0 mph 0.03 in   Overcast
10:52 AM 44.1 °F 38.1 °F 36.0 °F 73% 30.20 in 10.0 mi NNE 11.5 mph - N/A   Clear
11:52 AM 44.1 °F 36.2 °F 35.1 °F 71% 30.21 in 10.0 mi NNW 18.4 mph - N/A   Mostly Cloudy
12:52 PM 44.1 °F 37.1 °F 33.1 °F 65% 30.21 in 10.0 mi North 15.0 mph - N/A   Overcast
1:52 PM 45.0 °F 38.2 °F 33.1 °F 63% 30.19 in 10.0 mi NNW 15.0 mph - N/A   Overcast
2:52 PM 45.0 °F 37.9 °F 32.0 °F 60% 30.21 in 10.0 mi North 16.1 mph 24.2 mph N/A   Overcast
3:52 PM 45.0 °F 38.2 °F 30.9 °F 58% 30.21 in 10.0 mi NNW 15.0 mph - N/A   Mostly Cloudy
4:52 PM 45.0 °F 37.1 °F 27.0 °F 49% 30.19 in 10.0 mi North 19.6 mph 29.9 mph N/A   Scattered Clouds
5:52 PM 44.1 °F 37.4 °F 26.1 °F 49% 30.22 in 10.0 mi North 13.8 mph - N/A   Clear
6:52 PM 42.1 °F 35.7 °F 26.1 °F 53% 30.25 in 10.0 mi NNW 11.5 mph - N/A   Clear
7:52 PM 41.0 °F 33.9 °F 26.1 °F 55% 30.26 in 10.0 mi NNW 12.7 mph - N/A   Clear
8:52 PM 39.0 °F 30.6 °F 26.1 °F 60% 30.25 in 10.0 mi NNW 15.0 mph - N/A   Clear
9:52 PM 36.0 °F 28.0 °F 26.1 °F 67% 30.26 in 10.0 mi North 11.5 mph - N/A   Clear
10:52 PM 35.1 °F 26.9 °F 25.0 °F 67% 30.27 in 10.0 mi North 11.5 mph - N/A   Clear
11:52 PM 35.1 °F 25.9 °F 25.0 °F 67% 30.25 in 10.0 mi North 13.8 mph - N/A   Clear